Location: Eaton
(41.3139°N, 82.0207°W)
Time: 07:22:53
(UTC+00:00)

Cosmos 2285 Rocket - Pass Details

Date: 04 November 2021
Orbit: 970 x 1000 km, 74.0° (Epoch: 06 December)

Event Time Altitude Azimuth Distance (km) Brightness Sun altitude
Rises 09:10:57 0° 355° (N) 3,728 7.1 -32.7°
Reaches altitude 10° 09:15:53 10° 28° (NNE) 2,776 6.7 -31.8°
Maximum altitude 09:17:51 11° 46° (NE) 2,674 6.9 -31.4°
Drops below altitude 10° 09:19:48 10° 64° (ENE) 2,773 7.2 -31.1°
Sets 09:24:41 0° 97° (E) 3,716 8.2 -30.1°
